Volver al catálogo

KUIPER-00662

ActivoComunicacionesLEO
NORAD 69791·PAYLOAD·🇺🇸 United States

Lanzado Jul 2, 2026 desde Cape Canaveral Space Force Station

Loading…

Próximos Pases (próximas 24 horas)

TLE

ActualizadoSource: CelesTrak SupGP

Época: Sep 14, 2026, 22:35 UTC

1 69791C 26151AE  26257.94141204 -.00003538  00000+0 -46346-3 0  2577
2 69791  51.9004 261.2701 0000174 123.0282 124.1568 14.79900289    19

Sigue KUIPER-00662 en tiempo real con AllMySat

Download on the App Store